^^
Your Local Weather - Clay, NY Station Historical Data
Daily Summary for March 6, 2018 Units:  English    Metric   Both
« Previous Day
Next Day »
Daily Weekly Monthly Yearly Custom
  High: Low: Average:
Temperature: 40.8 °F 27.9 °F 34.1 °F
Dew Point: 31.5 °F 22.7 °F 25.2 °F
Humidity: 91% 54% 71%
Wind Speed: 6.0mph 0.0mph 2.2mph
Wind Gust: 13.0mph - -
Wind- - ESE
Pressure: 30.10 in 29.80 in -
Precipitation: 0.09 in    
Historical Graphs
 
 
Tabular Data for March 6, 2018
Time Temperature Dew Point Pressure Wind Wind Speed Wind Gust Humidity Rainfall Rate (Hourly) solar
00:02 29.4 °F 22.8 °F 30.10 in Calm     76% 0.00 in 0 W/m2
00:08 29.4 °F 22.8 °F 30.10 in Calm     76% 0.00 in 0 W/m2
00:14 29.3 °F 22.7 °F 30.10 in Calm     76% 0.00 in 0 W/m2
00:20 29.3 °F 22.7 °F 30.10 in Calm     76% 0.00 in 0 W/m2
00:26 29.3 °F 22.7 °F 30.10 in Calm     76% 0.00 in 0 W/m2
00:32 29.3 °F 22.7 °F 30.10 in Calm     76% 0.00 in 0 W/m2
00:38 29.3 °F 23.0 °F 30.10 in Calm     77% 0.00 in 0 W/m2
00:44 29.2 °F 22.9 °F 30.10 in Calm     77% 0.00 in 0 W/m2
00:50 29.2 °F 22.9 °F 30.10 in Calm     77% 0.00 in 0 W/m2
00:56 29.2 °F 22.9 °F 30.10 in Calm     77% 0.00 in 0 W/m2
01:02 29.1 °F 22.8 °F 30.09 in Calm     77% 0.00 in 0 W/m2
01:08 29.1 °F 22.8 °F 30.09 in Calm     77% 0.00 in 0 W/m2
01:14 29.0 °F 23.0 °F 30.09 in Calm     78% 0.00 in 0 W/m2
01:20 29.0 °F 23.0 °F 30.09 in Calm     78% 0.00 in 0 W/m2
01:26 28.9 °F 22.9 °F 30.09 in Calm     78% 0.00 in 0 W/m2
01:32 28.9 °F 23.2 °F 30.09 in Calm     79% 0.00 in 0 W/m2
01:40 28.7 °F 23.3 °F 30.08 in Calm     80% 0.00 in 0 W/m2
01:46 28.7 °F 23.3 °F 30.08 in Calm     80% 0.00 in 0 W/m2
01:52 28.7 °F 23.3 °F 30.08 in Calm     80% 0.00 in 0 W/m2
02:00 28.7 °F 23.3 °F 30.08 in Calm     80% 0.00 in 0 W/m2
02:06 28.7 °F 23.3 °F 30.07 in Calm     80% 0.00 in 0 W/m2
02:12 28.7 °F 23.3 °F 30.07 in Calm     80% 0.00 in 0 W/m2
02:18 28.8 °F 23.4 °F 30.07 in Calm     80% 0.00 in 0 W/m2
02:24 28.9 °F 23.5 °F 30.07 in North 1.0 mph 1.0 mph 80% 0.00 in 0 W/m2
02:30 28.9 °F 23.5 °F 30.07 in Calm     80% 0.00 in 0 W/m2
02:36 28.8 °F 23.7 °F 30.07 in Calm     81% 0.00 in 0 W/m2
02:42 28.7 °F 23.6 °F 30.07 in Calm     81% 0.00 in 0 W/m2
02:48 28.7 °F 23.6 °F 30.07 in Calm     81% 0.00 in 0 W/m2
02:54 28.6 °F 23.5 °F 30.06 in Calm     81% 0.00 in 0 W/m2
03:00 28.6 °F 23.5 °F 30.07 in Calm     81% 0.00 in 0 W/m2
03:06 28.7 °F 23.6 °F 30.07 in Calm     81% 0.00 in 0 W/m2
03:12 28.7 °F 23.6 °F 30.06 in Calm     81% 0.00 in 0 W/m2
03:18 28.7 °F 23.6 °F 30.06 in Calm     81% 0.00 in 0 W/m2
03:24 28.6 °F 23.5 °F 30.06 in Calm     81% 0.00 in 0 W/m2
03:30 28.6 °F 23.8 °F 30.06 in Calm     82% 0.00 in 0 W/m2
03:36 28.6 °F 23.5 °F 30.07 in Calm   1.0 mph 81% 0.00 in 0 W/m2
03:42 28.7 °F 23.9 °F 30.06 in Calm     82% 0.00 in 0 W/m2
03:48 28.7 °F 23.6 °F 30.06 in Calm     81% 0.00 in 0 W/m2
03:54 28.8 °F 23.7 °F 30.06 in Calm     81% 0.00 in 0 W/m2
04:00 28.8 °F 23.7 °F 30.06 in Calm     81% 0.00 in 0 W/m2
04:06 28.8 °F 23.7 °F 30.06 in Calm   3.0 mph 81% 0.00 in 0 W/m2
04:12 28.7 °F 23.6 °F 30.06 in NW 1.0 mph 1.0 mph 81% 0.00 in 0 W/m2
04:18 28.7 °F 23.9 °F 30.05 in Calm   1.0 mph 82% 0.00 in 0 W/m2
04:24 28.6 °F 23.8 °F 30.05 in Calm     82% 0.00 in 0 W/m2
04:30 28.5 °F 23.7 °F 30.06 in Calm     82% 0.00 in 0 W/m2
04:36 28.6 °F 23.8 °F 30.06 in Calm   1.0 mph 82% 0.00 in 0 W/m2
04:42 28.5 °F 23.7 °F 30.06 in Calm     82% 0.00 in 0 W/m2
04:48 28.5 °F 23.7 °F 30.06 in Calm     82% 0.00 in 0 W/m2
04:54 28.5 °F 23.7 °F 30.05 in Calm     82% 0.00 in 0 W/m2
05:00 28.5 °F 23.7 °F 30.05 in Calm     82% 0.00 in 0 W/m2
05:06 28.5 °F 23.7 °F 30.05 in Calm     82% 0.00 in 0 W/m2
05:12 28.4 °F 23.9 °F 30.05 in Calm     83% 0.00 in 0 W/m2
05:18 28.4 °F 23.9 °F 30.04 in Calm     83% 0.00 in 0 W/m2
05:24 28.4 °F 23.9 °F 30.04 in Calm     83% 0.00 in 0 W/m2
05:30 28.3 °F 23.8 °F 30.04 in Calm     83% 0.00 in 0 W/m2
05:36 28.2 °F 23.7 °F 30.05 in Calm   1.0 mph 83% 0.00 in 0 W/m2
05:42 28.2 °F 24.0 °F 30.05 in NW 1.0 mph 1.0 mph 84% 0.00 in 0 W/m2
05:48 28.2 °F 24.0 °F 30.04 in Calm   1.0 mph 84% 0.00 in 0 W/m2
05:54 28.2 °F 24.0 °F 30.04 in Calm     84% 0.00 in 0 W/m2
06:00 28.2 °F 24.0 °F 30.04 in Calm     84% 0.00 in 0 W/m2
06:06 28.1 °F 23.9 °F 30.05 in Calm     84% 0.00 in 0 W/m2
06:12 28.1 °F 23.9 °F 30.04 in Calm     84% 0.00 in 0 W/m2
06:18 28.0 °F 23.8 °F 30.04 in Calm   1.0 mph 84% 0.00 in 0 W/m2
06:24 28.0 °F 23.8 °F 30.04 in Calm     84% 0.00 in 0 W/m2
06:30 28.0 °F 24.1 °F 30.04 in Calm     85% 0.00 in 0 W/m2
06:36 28.0 °F 24.1 °F 30.04 in Calm     85% 0.00 in 0 W/m2
06:42 27.9 °F 24.0 °F 30.04 in Calm     85% 0.00 in 7 W/m2
06:48 27.9 °F 24.0 °F 30.04 in Calm     85% 0.00 in 11 W/m2
06:54 28.0 °F 24.1 °F 30.04 in Calm   1.0 mph 85% 0.00 in 14 W/m2
07:00 28.1 °F 24.2 °F 30.03 in Calm     85% 0.00 in 19 W/m2
07:06 28.0 °F 24.1 °F 30.03 in Calm     85% 0.00 in 25 W/m2
07:12 28.2 °F 24.3 °F 30.03 in Calm     85% 0.00 in 33 W/m2
07:18 28.3 °F 24.4 °F 30.03 in Calm     85% 0.00 in 40 W/m2
07:24 28.5 °F 24.6 °F 30.03 in Calm     85% 0.00 in 46 W/m2
07:30 28.6 °F 24.4 °F 30.03 in Calm     84% 0.00 in 53 W/m2
07:36 28.8 °F 24.6 °F 30.03 in Calm   1.0 mph 84% 0.00 in 62 W/m2
07:42 29.1 °F 24.9 °F 30.03 in Calm   1.0 mph 84% 0.00 in 70 W/m2
07:48 29.2 °F 24.7 °F 30.03 in Calm   1.0 mph 83% 0.00 in 83 W/m2
07:54 29.4 °F 24.9 °F 30.03 in NW 1.0 mph 2.0 mph 83% 0.00 in 88 W/m2
08:00 29.5 °F 24.7 °F 30.03 in Calm   1.0 mph 82% 0.00 in 97 W/m2
08:06 29.6 °F 24.5 °F 30.03 in NNW 1.0 mph 2.0 mph 81% 0.00 in 111 W/m2
08:12 29.9 °F 24.5 °F 30.03 in NNE 1.0 mph 2.0 mph 80% 0.00 in 125 W/m2
08:18 30.1 °F 24.7 °F 30.02 in ENE 1.0 mph 3.0 mph 80% 0.00 in 149 W/m2
08:24 30.2 °F 24.5 °F 30.02 in SE 2.0 mph 2.0 mph 79% 0.00 in 192 W/m2
08:30 30.5 °F 24.8 °F 30.02 in SE 2.0 mph 4.0 mph 79% 0.00 in 341 W/m2
08:36 30.8 °F 24.7 °F 30.02 in SE 3.0 mph 4.0 mph 78% 0.00 in 258 W/m2
08:42 31.0 °F 24.6 °F 30.02 in ENE 2.0 mph 2.0 mph 77% 0.00 in 225 W/m2
08:48 31.2 °F 24.5 °F 30.02 in ENE 2.0 mph 2.0 mph 76% 0.00 in 243 W/m2
08:56 31.7 °F 24.7 °F 30.01 in East 2.0 mph 3.0 mph 75% 0.00 in 417 W/m2
09:02 32.4 °F 25.4 °F 30.01 in SSE 3.0 mph 3.0 mph 75% 0.00 in 438 W/m2
09:08 32.7 °F 25.0 °F 30.01 in ESE 3.0 mph 4.0 mph 73% 0.00 in 469 W/m2
09:14 32.9 °F 25.2 °F 30.01 in ESE 3.0 mph 5.0 mph 73% 0.00 in 512 W/m2
09:20 33.7 °F 25.6 °F 30.01 in NE 2.0 mph 3.0 mph 72% 0.00 in 559 W/m2
09:26 33.0 °F 24.6 °F 30.01 in SSE 3.0 mph 5.0 mph 71% 0.00 in 464 W/m2
09:32 33.3 °F 24.6 °F 30.01 in ENE 4.0 mph 8.0 mph 70% 0.00 in 527 W/m2
09:38 34.3 °F 25.2 °F 30.00 in SE 3.0 mph 8.0 mph 69% 0.00 in 501 W/m2
09:44 34.1 °F 24.6 °F 30.00 in East 3.0 mph 6.0 mph 68% 0.00 in 547 W/m2
09:50 33.7 °F 24.3 °F 30.00 in NE 4.0 mph 5.0 mph 68% 0.00 in 504 W/m2
09:56 33.9 °F 24.4 °F 29.99 in SE 4.0 mph 6.0 mph 68% 0.00 in 438 W/m2
10:02 34.5 °F 23.9 °F 29.98 in SE 4.0 mph 6.0 mph 65% 0.00 in 710 W/m2
10:08 35.0 °F 24.0 °F 29.98 in ENE 5.0 mph 6.0 mph 64% 0.00 in 422 W/m2
10:14 35.0 °F 23.7 °F 29.98 in SE 5.0 mph 6.0 mph 63% 0.00 in 721 W/m2
10:20 35.2 °F 24.2 °F 29.98 in ESE 5.0 mph 5.0 mph 64% 0.00 in 635 W/m2
10:26 35.3 °F 23.6 °F 29.98 in SE 4.0 mph 5.0 mph 62% 0.00 in 554 W/m2
10:32 35.2 °F 23.1 °F 29.98 in ESE 4.0 mph 4.0 mph 61% 0.00 in 694 W/m2
10:38 35.0 °F 22.9 °F 29.98 in SE 5.0 mph 6.0 mph 61% 0.00 in 392 W/m2
10:44 34.9 °F 23.6 °F 29.98 in ESE 5.0 mph 5.0 mph 63% 0.00 in 582 W/m2
10:50 35.9 °F 24.1 °F 29.97 in NE 5.0 mph 5.0 mph 62% 0.00 in 923 W/m2
10:56 35.8 °F 24.0 °F 29.96 in ENE 5.0 mph 9.0 mph 62% 0.00 in 621 W/m2
11:02 36.1 °F 24.3 °F 29.96 in ESE 3.0 mph 4.0 mph 62% 0.00 in 533 W/m2
11:08 35.6 °F 23.9 °F 29.96 in East 4.0 mph 6.0 mph 62% 0.00 in 510 W/m2
11:14 36.6 °F 24.4 °F 29.96 in SE 4.0 mph 5.0 mph 61% 0.00 in 993 W/m2
11:20 36.7 °F 23.7 °F 29.96 in ESE 4.0 mph 4.0 mph 59% 0.00 in 534 W/m2
11:26 36.6 °F 23.6 °F 29.95 in South 4.0 mph 6.0 mph 59% 0.00 in 851 W/m2
11:32 36.2 °F 23.2 °F 29.95 in ENE 4.0 mph 4.0 mph 59% 0.00 in 863 W/m2
11:38 36.8 °F 24.2 °F 29.95 in East 3.0 mph 5.0 mph 60% 0.00 in 703 W/m2
11:44 37.2 °F 23.8 °F 29.94 in ESE 5.0 mph 5.0 mph 58% 0.00 in 925 W/m2
11:50 36.6 °F 23.2 °F 29.94 in ENE 4.0 mph 4.0 mph 58% 0.00 in 406 W/m2
11:56 36.7 °F 23.7 °F 29.93 in ESE 3.0 mph 7.0 mph 59% 0.00 in 388 W/m2
12:02 37.2 °F 23.8 °F 29.92 in ESE 3.0 mph 7.0 mph 58% 0.00 in 854 W/m2
12:08 37.8 °F 24.3 °F 29.92 in East 5.0 mph 7.0 mph 58% 0.00 in 740 W/m2
12:14 37.8 °F 23.5 °F 29.91 in East 5.0 mph 8.0 mph 56% 0.00 in 726 W/m2
12:20 38.2 °F 23.9 °F 29.91 in ESE 5.0 mph 5.0 mph 56% 0.00 in 735 W/m2
12:26 38.1 °F 23.8 °F 29.90 in NE 5.0 mph 7.0 mph 56% 0.00 in 742 W/m2
12:32 38.5 °F 24.1 °F 29.90 in East 5.0 mph 11.0 mph 56% 0.00 in 728 W/m2
12:38 38.8 °F 23.6 °F 29.90 in ESE 5.0 mph 11.0 mph 54% 0.00 in 738 W/m2
12:44 38.9 °F 24.1 °F 29.89 in SE 4.0 mph 9.0 mph 55% 0.00 in 780 W/m2
12:50 38.0 °F 24.1 °F 29.89 in ENE 4.0 mph 4.0 mph 57% 0.00 in 613 W/m2
12:56 37.7 °F 24.2 °F 29.89 in NE 5.0 mph 6.0 mph 58% 0.00 in 515 W/m2
13:03 38.2 °F 25.1 °F 29.89 in East 3.0 mph 4.0 mph 59% 0.00 in 958 W/m2
13:08 39.1 °F 24.3 °F 29.89 in ENE 3.0 mph 4.0 mph 55% 0.00 in 851 W/m2
13:14 38.3 °F 24.0 °F 29.88 in NE 5.0 mph 9.0 mph 56% 0.00 in 744 W/m2
13:20 38.5 °F 24.1 °F 29.88 in NNE 6.0 mph 6.0 mph 56% 0.00 in 707 W/m2
13:26 38.6 °F 24.2 °F 29.88 in ENE 5.0 mph 6.0 mph 56% 0.00 in 459 W/m2
13:32 38.6 °F 24.7 °F 29.87 in ENE 4.0 mph 5.0 mph 57% 0.00 in 809 W/m2
13:38 39.5 °F 24.7 °F 29.87 in East 4.0 mph 5.0 mph 55% 0.00 in 747 W/m2
13:44 39.1 °F 24.3 °F 29.87 in East 4.0 mph 7.0 mph 55% 0.00 in 406 W/m2
13:50 39.0 °F 24.6 °F 29.86 in North 5.0 mph 5.0 mph 56% 0.00 in 417 W/m2
13:56 40.3 °F 25.4 °F 29.85 in ENE 4.0 mph 5.0 mph 55% 0.00 in 652 W/m2
14:02 39.9 °F 25.0 °F 29.85 in ENE 3.0 mph 4.0 mph 55% 0.00 in 476 W/m2
14:10 39.6 °F 24.7 °F 29.85 in NE 4.0 mph 9.0 mph 55% 0.00 in 455 W/m2
14:18 39.8 °F 24.9 °F 29.85 in ENE 5.0 mph 9.0 mph 55% 0.00 in 691 W/m2
14:24 40.3 °F 25.0 °F 29.85 in ENE 5.0 mph 10.0 mph 54% 0.00 in 503 W/m2
14:30 39.2 °F 24.4 °F 29.85 in NE 5.0 mph 5.0 mph 55% 0.00 in 323 W/m2
14:36 39.2 °F 24.4 °F 29.84 in ENE 5.0 mph 9.0 mph 55% 0.00 in 403 W/m2
14:42 39.7 °F 25.7 °F 29.84 in NE 5.0 mph 6.0 mph 57% 0.00 in 355 W/m2
14:48 40.2 °F 24.9 °F 29.84 in ENE 4.0 mph 6.0 mph 54% 0.00 in 320 W/m2
14:54 40.1 °F 24.8 °F 29.84 in East 4.0 mph 11.0 mph 54% 0.00 in 367 W/m2
15:00 40.0 °F 25.1 °F 29.83 in ENE 4.0 mph 9.0 mph 55% 0.00 in 357 W/m2
15:06 39.7 °F 24.8 °F 29.83 in NE 5.0 mph 9.0 mph 55% 0.00 in 302 W/m2
15:12 39.4 °F 24.6 °F 29.83 in ENE 5.0 mph 8.0 mph 55% 0.00 in 274 W/m2
15:18 39.7 °F 25.3 °F 29.82 in ENE 5.0 mph 8.0 mph 56% 0.00 in 290 W/m2
15:24 40.0 °F 25.1 °F 29.82 in ENE 3.0 mph 4.0 mph 55% 0.00 in 380 W/m2
15:30 40.5 °F 25.1 °F 29.82 in ENE 4.0 mph 4.0 mph 54% 0.00 in 350 W/m2
15:36 40.5 °F 25.1 °F 29.82 in NE 4.0 mph 6.0 mph 54% 0.00 in 253 W/m2
15:42 40.4 °F 25.1 °F 29.82 in East 4.0 mph 7.0 mph 54% 0.00 in 221 W/m2
15:48 40.3 °F 25.0 °F 29.82 in SE 5.0 mph 9.0 mph 54% 0.00 in 199 W/m2
15:54 40.1 °F 25.2 °F 29.82 in ENE 5.0 mph 9.0 mph 55% 0.00 in 204 W/m2
16:00 40.2 °F 25.3 °F 29.82 in East 4.0 mph 4.0 mph 55% 0.00 in 183 W/m2
16:10 40.6 °F 25.7 °F 29.82 in NNE 4.0 mph 4.0 mph 55% 0.00 in 323 W/m2
16:16 40.4 °F 25.1 °F 29.81 in SE 5.0 mph 8.0 mph 54% 0.00 in 237 W/m2
16:22 40.8 °F 25.9 °F 29.81 in ENE 3.0 mph 8.0 mph 55% 0.00 in 295 W/m2
16:28 40.5 °F 25.1 °F 29.81 in East 4.0 mph 8.0 mph 54% 0.00 in 141 W/m2
16:36 40.1 °F 24.8 °F 29.82 in ENE 5.0 mph 13.0 mph 54% 0.00 in 139 W/m2
16:42 39.9 °F 25.0 °F 29.82 in ENE 5.0 mph 5.0 mph 55% 0.00 in 100 W/m2
16:46 39.9 °F 25.5 °F 29.81 in East 4.0 mph 7.0 mph 56% 0.00 in 102 W/m2
16:52 39.8 °F 24.9 °F 29.81 in East 4.0 mph 7.0 mph 55% 0.00 in 91 W/m2
16:58 39.7 °F 25.3 °F 29.82 in SSE 5.0 mph 7.0 mph 56% 0.00 in 105 W/m2
17:04 39.6 °F 25.2 °F 29.82 in East 4.0 mph 8.0 mph 56% 0.00 in 88 W/m2
17:10 39.4 °F 25.0 °F 29.82 in ENE 5.0 mph 5.0 mph 56% 0.00 in 49 W/m2
17:16 39.2 °F 25.2 °F 29.82 in East 4.0 mph 5.0 mph 57% 0.00 in 28 W/m2
17:22 39.0 °F 25.5 °F 29.81 in ENE 3.0 mph 8.0 mph 58% 0.00 in 25 W/m2
17:28 38.8 °F 25.3 °F 29.81 in ENE 4.0 mph 8.0 mph 58% 0.00 in 16 W/m2
17:34 38.7 °F 25.2 °F 29.81 in ENE 4.0 mph 4.0 mph 58% 0.00 in 12 W/m2
17:40 38.5 °F 25.0 °F 29.81 in East 4.0 mph 6.0 mph 58% 0.00 in 16 W/m2
17:46 38.4 °F 25.3 °F 29.81 in ENE 4.0 mph 6.0 mph 59% 0.00 in 12 W/m2
17:52 38.4 °F 25.3 °F 29.81 in ENE 4.0 mph 4.0 mph 59% 0.00 in 5 W/m2
17:58 38.2 °F 25.5 °F 29.81 in ENE 4.0 mph 8.0 mph 60% 0.00 in 0 W/m2
18:04 38.1 °F 25.4 °F 29.80 in East 4.0 mph 5.0 mph 60% 0.00 in 0 W/m2
18:10 38.1 °F 25.8 °F 29.81 in ENE 5.0 mph 5.0 mph 61% 0.00 in 0 W/m2
18:16 38.0 °F 26.1 °F 29.81 in East 4.0 mph 5.0 mph 62% 0.00 in 0 W/m2
18:22 37.9 °F 26.0 °F 29.81 in ENE 3.0 mph 3.0 mph 62% 0.00 in 0 W/m2
18:28 37.9 °F 26.0 °F 29.81 in ESE 3.0 mph 5.0 mph 62% 0.00 in 0 W/m2
18:34 37.9 °F 26.0 °F 29.81 in ESE 2.0 mph 5.0 mph 62% 0.00 in 0 W/m2
18:40 37.9 °F 26.0 °F 29.81 in East 3.0 mph 3.0 mph 62% 0.00 in 0 W/m2
18:46 37.9 °F 26.0 °F 29.80 in East 4.0 mph 4.0 mph 62% 0.00 in 0 W/m2
18:52 37.8 °F 26.3 °F 29.81 in ESE 3.0 mph 3.0 mph 63% 0.00 in 0 W/m2
18:58 37.9 °F 26.4 °F 29.81 in ESE 3.0 mph 3.0 mph 63% 0.00 in 0 W/m2
19:00 37.9 °F 26.0 °F 29.81 in ENE 3.0 mph 3.0 mph 62% 0.00 in 0 W/m2
19:06 37.9 °F 26.4 °F 29.81 in SE 3.0 mph 3.0 mph 63% 0.00 in 0 W/m2
19:12 37.9 °F 26.0 °F 29.81 in NE 2.0 mph 3.0 mph 62% 0.00 in 0 W/m2
19:18 37.9 °F 26.0 °F 29.81 in East 3.0 mph 5.0 mph 62% 0.00 in 0 W/m2
19:24 38.0 °F 26.1 °F 29.81 in East 4.0 mph 5.0 mph 62% 0.00 in 0 W/m2
19:30 38.0 °F 26.1 °F 29.81 in ENE 3.0 mph 3.0 mph 62% 0.00 in 0 W/m2
19:36 37.9 °F 26.0 °F 29.81 in ENE 2.0 mph 5.0 mph 62% 0.00 in 0 W/m2
19:42 37.9 °F 26.4 °F 29.81 in ENE 2.0 mph 3.0 mph 63% 0.00 in 0 W/m2
19:48 37.9 °F 26.4 °F 29.81 in ESE 2.0 mph 7.0 mph 63% 0.00 in 0 W/m2
19:54 37.9 °F 26.4 °F 29.81 in East 2.0 mph 3.0 mph 63% 0.00 in 0 W/m2
20:00 37.8 °F 26.3 °F 29.80 in East 2.0 mph 2.0 mph 63% 0.00 in 0 W/m2
20:06 37.7 °F 26.6 °F 29.80 in East 2.0 mph 3.0 mph 64% 0.00 in 0 W/m2
20:12 37.7 °F 26.2 °F 29.80 in East 2.0 mph 3.0 mph 63% 0.00 in 0 W/m2
20:18 37.6 °F 26.5 °F 29.80 in SE 1.0 mph 3.0 mph 64% 0.00 in 0 W/m2
20:24 37.6 °F 26.1 °F 29.80 in ENE 2.0 mph 3.0 mph 63% 0.00 in 0 W/m2
20:30 37.6 °F 26.5 °F 29.81 in East 2.0 mph 2.0 mph 64% 0.00 in 0 W/m2
20:36 37.6 °F 26.5 °F 29.81 in SE 1.0 mph 4.0 mph 64% 0.00 in 0 W/m2
20:42 37.6 °F 26.5 °F 29.82 in SE 1.0 mph 4.0 mph 64% 0.00 in 0 W/m2
20:48 37.5 °F 26.4 °F 29.82 in SE 1.0 mph 4.0 mph 64% 0.00 in 0 W/m2
20:54 37.3 °F 27.0 °F 29.83 in SSE 2.0 mph 4.0 mph 66% 0.00 in 0 W/m2
21:00 37.1 °F 27.2 °F 29.84 in ESE 2.0 mph 5.0 mph 67% 0.00 in 0 W/m2
21:06 37.3 °F 27.7 °F 29.84 in South 3.0 mph 5.0 mph 68% 0.00 in 0 W/m2
21:12 37.0 °F 28.5 °F 29.84 in South 4.0 mph 4.0 mph 71% 0.00 in 0 W/m2
21:18 36.7 °F 29.2 °F 29.84 in SSW 4.0 mph 4.0 mph 74% 0.00 in 0 W/m2
21:24 36.6 °F 30.1 °F 29.85 in South 3.0 mph 4.0 mph 77% 0.00 in 0 W/m2
21:30 36.5 °F 30.6 °F 29.85 in WSW 2.0 mph 3.0 mph 79% 0.00 in 0 W/m2
21:36 36.3 °F 31.0 °F 29.85 in SSW 3.0 mph 5.0 mph 81% 0.00 in 0 W/m2
21:42 36.2 °F 31.2 °F 29.85 in SSW 3.0 mph 4.0 mph 82% 0.06 in 0 W/m2
21:48 36.0 °F 31.3 °F 29.85 in SSW 2.0 mph 4.0 mph 83% 0.06 in 0 W/m2
21:54 35.8 °F 31.4 °F 29.85 in South 3.0 mph 6.0 mph 84% 0.05 in 0 W/m2
22:00 35.6 °F 31.5 °F 29.85 in South 3.0 mph 6.0 mph 85% 0.11 in 0 W/m2
22:06 35.4 °F 31.3 °F 29.85 in South 4.0 mph 6.0 mph 85% 0.08 in 0 W/m2
22:12 35.1 °F 31.3 °F 29.85 in South 4.0 mph 4.0 mph 86% 0.11 in 0 W/m2
22:18 34.9 °F 31.4 °F 29.85 in South 3.0 mph 5.0 mph 87% 0.07 in 0 W/m2
22:24 34.7 °F 31.2 °F 29.84 in South 2.0 mph 3.0 mph 87% 0.04 in 0 W/m2
22:30 34.6 °F 31.1 °F 29.84 in South 1.0 mph 3.0 mph 87% 0.00 in 0 W/m2
22:36 34.4 °F 31.2 °F 29.84 in South 1.0 mph 3.0 mph 88% 0.00 in 0 W/m2
22:42 34.4 °F 31.2 °F 29.85 in South 1.0 mph 1.0 mph 88% 0.00 in 0 W/m2
22:48 34.3 °F 31.1 °F 29.84 in Calm   1.0 mph 88% 0.00 in 0 W/m2
22:54 34.1 °F 31.2 °F 29.84 in Calm   1.0 mph 89% 0.05 in 0 W/m2
23:00 33.8 °F 30.9 °F 29.84 in Calm     89% 0.05 in 0 W/m2
23:06 33.4 °F 30.5 °F 29.84 in East 1.0 mph 3.0 mph 89% 0.04 in 0 W/m2
23:12 33.0 °F 30.1 °F 29.83 in East 1.0 mph 1.0 mph 89% 0.00 in 0 W/m2
23:18 32.8 °F 29.9 °F 29.83 in Calm   2.0 mph 89% 0.00 in 0 W/m2
23:24 32.7 °F 30.1 °F 29.83 in East 1.0 mph 2.0 mph 90% 0.00 in 0 W/m2
23:30 32.6 °F 30.0 °F 29.83 in East 1.0 mph 1.0 mph 90% 0.00 in 0 W/m2
23:36 32.5 °F 29.9 °F 29.83 in East 1.0 mph 2.0 mph 90% 0.00 in 0 W/m2
23:42 32.5 °F 29.9 °F 29.83 in East 1.0 mph 1.0 mph 90% 0.00 in 0 W/m2
23:48 32.4 °F 30.1 °F 29.83 in Calm   1.0 mph 91% 0.00 in 0 W/m2
23:54 32.4 °F 30.1 °F 29.83 in East 1.0 mph 2.0 mph 91% 0.00 in 0 W/m2
Country Meadow, Clay, NY, USA
Compliments of Weather Underground - 2 mb